Starlink 2187

operational
NORAD ID: 48562 Int'l Des: 2021-041 Owner: SPXS Country: US Constellation: starlink
LEOCIRCULARSTARLINK_TYPE

Über Starlink 2187

Beschreibung wird geladen...

Live-Position

3D-Globus wird geladen...

Nächste Überflüge

Höhenverlauf

Altitude vs Time

uPlot chart will show altitude changes over time

Zweizeiliger Elementsatz

1 48562U 21041K 25306.49536104 .00009870 00000-0 68061-3 0 9999
2 48562 53.0551 342.6193 0001555 85.8355 274.2812 15.06397248246030
Epoch: 2. Nov. 2025 • Age: 11 hours

Aktueller Status

Höhe 556.8 km
Geschwindigkeit 7.58 km/s
Subsatellitenpunkt -29.53°S, 69.97°W
Startdatum 15. Mai 2021
Alter 4.4 years
Typ internet

Technische Details

Klassifizierung Payload
Masse 260.00 kg
Trockenmasse 248.00 kg
Gesamtmasse 260.00 kg
Länge 0.20 m
Durchmesser 2.80 m
Spannweite 9.00 m
Form Box + pan
Hersteller SPXS
Bus-Typ Starlink
Phasenstatus In Orbit
Besitzer/Staat SPXS/US

Große Konstellationen

Loading constellations...